Find Starlink 30925

NORAD ID: 58406 Int'l Des: 2023-180 Owner: SPXS Country: US Constellation: starlink operational
LEOCIRCULAR

当前视图

正在加载3D地球...

About Starlink 30925

Starlink 30925 (NORAD 58406) is a starlink constellation satellite (v2 mini) launched Nov 22, 2023 by SPXS of US. It operates in LEO, CIRCULAR orbit with a mass of 730.00 kg.

即将过境

Passes for default location (London). Set your location on the main map for personalized predictions.

高度历史

Loading altitude history...

两行轨道根数

1 58406U 23180E 26235.94363933 .00000745 00000-0 36612-4 0 9993
2 58406 43.0015 188.1343 0001371 267.5323 92.5371 15.27580714153080
Epoch: Aug 23, 2026 • Age: 8 hours

当前状态

高度 485.5 km
远地点 / 近地点 N/A
速度 7.63 km/s
星下点 35.89°N, 162.92°E
发射日期 Nov 22, 2023
运行时间 2.7 years
类型 internet

技术详情

分类 Payload
质量 730.00 kg
干质量 700.00 kg
总质量 730.00 kg
长度 0.30 m
直径 4.10 m
跨度 29.00 m
形状 Box + pan
制造商 SPXS
平台类型 Starlink V2M
阶段状态 In Orbit
所有者/国家 SPXS/US

Most Searched